EW3148 Weather Reports


time (UTC)temp
F
wind
direction
speed
knots
gust
knots
rain 1hr
in
rain 24hr
in
rain mn
in
humidity
%
barometer
mb
20260904215633 93 136 4.3 9.6 0.00 0.00 0.00 53 1009.4
20260904214641 94 128 3.5 9.6 0.00 0.00 0.00 49 1009.5
20260904212544 94 133 3.5 11.3 0.00 0.00 0.00 48 1009.8
20260904211543 94 221 4.3 11.3 0.00 0.00 0.00 48 1009.8
20260904210520 92 202 4.3 10.4 0.00 0.00 0.00 52 1010.0
20260904203250 92 191 1.7 9.6 0.00 0.00 0.00 56 1010.3
20260904202259 92 205 2.6 9.6 0.00 0.00 0.00 56 1010.4
20260904201304 92 169 2.6 9.6 0.00 0.00 0.00 58 1010.5
20260904200300 90 171 1.7 7.0 0.00 0.00 0.00 60 1010.6
20260904195323 90 173 1.7 6.1 0.00 0.00 0.00 61 1010.8
20260904185804 88 126 2.6 8.7 0.00 0.00 0.00 67 1011.3
20260904184759 87 123 2.6 8.7 0.00 0.00 0.00 67 1011.4
20260904183821 87 121 1.7 7.0 0.00 0.00 0.00 69 1011.6
20260904182846 87 152 3.5 7.0 0.00 0.00 0.00 69 1011.7
20260904181849 87 153 2.6 7.8 0.00 0.00 0.00 68 1011.7
20260904180823 87 201 2.6 7.8 0.00 0.00 0.00 70 1011.8
20260904175801 87 199 1.7 6.1 0.00 0.00 0.00 69 1011.8
20260904174803 87 205 2.6 7.0 0.00 0.00 0.00 69 1012.0
20260904173820 86 144 1.7 9.6 0.00 0.00 0.00 71 1012.1
20260904172841 86 178 2.6 11.3 0.00 0.00 0.00 70 1012.1
20260904171904 86 179 2.6 11.3 0.00 0.00 0.00 71 1012.1
20260904170907 86 160 2.6 6.1 0.00 0.00 0.00 73 1012.2
20260904164716 84 212 2.6 8.7 0.00 0.00 0.00 75 1012.0
20260904163720 84 199 1.7 8.7 0.00 0.00 0.00 76 1011.9
20260904162701 83 196 1.7 8.7 0.00 0.00 0.00 78 1011.8
20260904161639 83 221 1.7 6.1 0.00 0.00 0.00 79 1011.9
20260904160655 82 185 1.7 7.0 0.00 0.00 0.00 80 1011.9
20260904155646 82 169 1.7 9.6 0.00 0.00 0.00 80 1011.9
20260904154703 82 227 1.7 9.6 0.00 0.00 0.00 80 1011.9
20260904153655 82 195 1.7 7.8 0.00 0.00 0.00 81 1012.0
20260904152710 82 174 2.6 7.8 0.00 0.00 0.00 82 1012.0
20260904151641 82 186 0.9 5.2 0.00 0.00 0.00 83 1011.9
20260904150641 82 194 0.9 5.2 0.00 0.00 0.00 83 1012.1
20260904145651 82 204 0.9 3.5 0.00 0.00 0.00 84 1012.1
20260904144619 81 213 0.0 2.6 0.00 0.00 0.00 86 1012.2
20260904143618 81 175 1.7 7.8 0.00 0.00 0.00 86 1012.1
20260904142643 80 153 1.7 7.8 0.00 0.00 0.00 87 1011.9
20260904135340 79 157 1.7 4.3 0.00 0.00 0.00 90 1011.8
20260904134331 79 169 0.9 3.5 0.00 0.00 0.00 90 1011.9
20260904133348 79 167 0.9 3.5 0.00 0.00 0.00 90 1011.7
20260904132345 79 186 0.9 4.3 0.00 0.00 0.00 90 1011.6
20260904131355 79 173 1.7 6.1 0.00 0.00 0.00 90 1011.5
20260904130356 79 178 0.9 7.0 0.00 0.00 0.00 90 1011.4
20260904125351 79 159 1.7 7.8 0.00 0.00 0.00 90 1011.4
20260904124345 79 181 3.5 7.8 0.00 0.00 0.00 90 1011.2
20260904123338 79 146 3.5 7.0 0.00 0.00 0.00 90 1011.1
20260904122342 78 159 1.7 7.0 0.00 0.00 0.00 91 1011.0
20260904121346 78 134 2.6 7.0 0.00 0.00 0.00 91 1010.9
20260904115252 78 155 1.7 6.1 0.00 0.00 0.00 91 1010.6
20260904114233 78 164 2.6 7.8 0.00 0.00 0.00 91 1010.4
20260904113213 78 137 2.6 7.8 0.00 0.00 0.00 90 1010.4
20260904111042 78 88 1.7 6.1 0.00 0.00 0.00 90 1010.3
20260904110023 78 119 0.9 4.3 0.00 0.00 0.00 90 1010.2
20260904104950 79 149 1.7 7.8 0.00 0.00 0.00 89 1010.1
20260904103929 79 184 2.6 7.8 0.00 0.00 0.00 89 1009.7
20260904101713 79 191 1.7 6.1 0.00 0.00 0.00 89 1009.8
20260904100722 79 172 1.7 7.0 0.00 0.00 0.00 89 1010.0
20260904095648 79 182 0.9 7.8 0.00 0.00 0.00 88 1009.9
20260904093514 79 184 1.7 6.1 0.00 0.00 0.00 88 1009.6
20260904092500 79 193 2.6 6.1 0.00 0.00 0.00 88 1009.5
20260904091516 79 167 1.7 6.1 0.00 0.00 0.00 88 1009.7
20260904090506 79 188 1.7 6.1 0.00 0.00 0.00 88 1009.8
20260904085521 79 184 2.6 7.0 0.00 0.00 0.00 88 1009.8
20260904084518 79 192 3.5 7.8 0.00 0.00 0.00 87 1009.7
20260904083451 79 193 3.5 8.7 0.00 0.00 0.00 87 1009.7
20260904073856 80 172 3.5 11.3 0.00 0.00 0.00 85 1009.9
20260904072918 80 150 3.5 11.3 0.00 0.00 0.00 85 1009.9
20260904071902 80 189 3.5 11.3 0.00 0.00 0.00 85 1010.0
20260904070830 80 208 3.5 9.6 0.00 0.00 0.00 85 1010.1
20260904064711 80 157 5.2 13.0 0.00 0.00 0.00 84 1010.1
20260904063656 80 174 3.5 13.0 0.00 0.00 0.00 83 1010.1
20260904062647 80 159 4.3 11.3 0.00 0.00 0.00 83 1010.1
20260904060537 80 144 4.3 9.6 0.00 0.00 0.00 82 1010.1
20260904055515 80 194 3.5 8.7 0.00 0.00 0.00 81 1010.2
20260904054537 80 178 3.5 8.7 0.00 0.00 0.00 81 1010.2
20260904053517 80 165 2.6 7.8 0.00 0.00 0.00 81 1010.1
20260904051341 80 162 4.3 11.3 0.00 0.00 0.00 80 1009.9
20260904050326 80 174 2.6 8.7 0.00 0.00 0.00 80 1009.8
20260904044211 80 170 2.6 9.6 0.00 0.00 0.00 79 1009.9
20260904043200 81 157 3.5 9.6 0.00 0.00 0.00 78 1009.9
20260904041235 81 204 4.3 13.9 0.00 0.00 0.00 77 1009.8
20260904040200 81 142 4.3 13.9 0.00 0.00 0.00 76 1009.8
20260904032821 82 144 3.5 11.3 0.00 0.00 0.00 75 1009.6
20260904031747 82 153 3.5 11.3 0.00 0.00 0.00 74 1009.5
20260904030733 83 138 3.5 9.6 0.00 0.00 0.00 72 1009.4
20260904025754 83 170 4.3 13.0 0.00 0.00 0.00 71 1009.3
20260904024744 83 188 5.2 13.0 0.00 0.00 0.00 71 1009.2
20260904023750 83 155 4.3 12.2 0.00 0.00 0.00 72 1009.1
20260904022731 83 165 3.5 8.7 0.00 0.00 0.00 72 1009.1
20260904020619 83 131 2.6 8.7 0.00 0.00 0.00 72 1008.8
20260904015602 84 177 3.5 9.6 0.00 0.00 0.00 71 1008.5
20260904013442 84 162 4.3 10.4 0.00 0.00 0.00 70 1008.4
20260904012438 85 98 5.2 10.4 0.00 0.00 0.00 69 1008.4
20260904010325 86 150 4.3 13.9 0.00 0.00 0.00 66 1008.2
20260904005308 86 154 5.2 13.9 0.00 0.00 0.00 65 1008.1
20260904004241 87 101 5.2 15.6 0.00 0.00 0.00 64 1008.2
20260904003255 87 153 5.2 15.6 0.00 0.00 0.00 63 1008.2
20260904002228 87 155 3.5 10.4 0.00 0.00 0.00 62 1008.1
20260904001228 88 161 4.3 12.2 0.00 0.00 0.00 62 1008.1
20260903235052 88 151 5.2 12.2 0.00 0.00 0.00 62 1007.9
20260903234050 89 137 6.1 12.2 0.00 0.00 0.00 60 1007.9
20260903233022 90 121 5.2 15.6 0.00 0.00 0.00 60 1007.8
20260903230819 92 111 7.8 16.5 0.00 0.00 0.00 56 1007.7
20260903224651 95 97 3.5 9.6 0.00 0.00 0.00 50 1007.3
20260903223639 96 121 5.2 11.3 0.00 0.00 0.00 50 1007.2
20260903222624 96 134 6.1 14.8 0.00 0.00 0.00 48 1007.3
20260903220522 98 166 4.3 12.2 0.00 0.00 0.00 44 1007.0